Showing default

EMISAT, 44078

Orbit data source: Space-Track

EMISAT, 44078 is a payload satellite owned by ISRO (IN) in SSO that was launched on Mon, 01 Apr 2019 UTC via a PSLV-QL launch vehicle from the Sirharikota (SRI). Payload-class satellites include a variety of spacecraft equipped with specific instruments for various scientific and technological missions. These include communications satellites like Starlink; space stations such as the ISS; scientific satellites like the Hubble; Earth observation satellites from companies like Planet Labs, Umbra, and HawkEye 360; GPS; miniature CubeSats for education and research; and military/defense satellites.

Loading next visibility...
Identifier
44078, 2019-018A
Orbit
SSO
Country
Flag of ININ / IND
Related business
Manufacturer
ISRO
Mission
Operational Defense Sigint
Bus & Motor
SSB-2, AOCS
Mass
436 kg wet, ~380 kg dry
Launch date (UTC)
2019-04-01 (6 years ago)
Launch vehicle
PSLV-QL
Launch site
Sirharikota (SRI)
Object type
Payload
Rocket body
Debris
Shape & HBR
Box + 2 Pan, 3.0 m
Radar Cross Section
4.485 m², Large (>1 m²)

Expand to show TLE details & history
Last TLE update: 11 hours ago

TLE from 11 hours ago
0 EMISAT
1 44078U 19018A   25242.94762377  .00000372  00000-0  12176-3 0  9994
2 44078  98.3429 297.7865 0018561  15.7930 344.3836 14.43736080338180
Epoch: 2025-08-30T22:44Z
TLE epoch observation values (Epoch: 2025-08-30T22:44:34.693Z)
Latitude
-0.00002°
Longitude
-22.73266°
Altitude
736.403 km
Speed
7.493 km/s
True Right ascension
19h 51m 08s
True Declination
0° 00' 00"
Sunlit
Object was in full shadow at epoch
Visualization orbit readout
Latitude
Unknown
Longitude
Unknown
Altitude
Unknown
Speed
Unknown
Apparent Right ascension
Unknown
Apparent Declination
Unknown
Sunlit
N/A
Visualization observer readout
Local Sidereal Time
01:30:23
Azimuth
Unknown
Elevation
Unknown
Doppler factor
Unknown
Orbital elements
Apogee altitude
756.509 km
Perigee altitude
730.073 km
Semi-major axis
7,121.428 km
Eccentricity
0.00186
Inclination
98.3429°
RAAN
297.7865°
Arg. of periapsis
15.793°
True anomaly
344.32622°
Mean anomaly
344.3836°
Eccentric anomaly
344.35492°
Mean motion
3.61154 °/min
Orbital period
99.68 mins
BSTAR
0.00012176
Loading maneuver chart data...
Computing Atmospheric mass density...

Documentation

Showing up to 5 results
|